Location: Pl�tzky
(52.0521°N, 11.8020°E)
Time: 10:55:26
(UTC+00:00)

Cosmos 2369 - Pass Details

Date: 22 November 2019
Orbit: 838 x 858 km, 71.0° (Epoch: 15 December)

Event Time Altitude Azimuth Distance (km) Brightness Sun altitude
Rises 15:41:19 0° 184° (S) 3,389 7.3 -4.6°
Reaches altitude 10° 15:43:52 10° 177° (S) 2,462 6.5 -4.9°
Maximum altitude 15:49:06 41° 109° (ESE) 1,224 4.3 -5.7°
Drops below altitude 10° 15:54:24 10° 41° (NE) 2,490 5.6 -6.4°
Enters shadow 15:55:55 - 37° (NE) 3,036 6.0 -6.6°
